Location: Follega
(52.8850°N, 5.7362°E)
Time: 01:46:56
(UTC+00:00)

STARLINK-1154 - Pass Details

Date: 01 June 2020
Orbit: 549 x 550 km, 53.0° (Epoch: 15 July)

Event Time Altitude Azimuth Distance (km) Brightness Sun altitude
Rises 21:50:11 0° 277° (W) 2,722 7.6 -11.5°
Reaches altitude 10° 21:52:25 10° 278° (W) 1,828 6.7 -11.7°
Maximum altitude 21:56:35 87° 190° (S) 557 3.6 -11.9°
Drops below altitude 10° 22:00:44 10° 101° (ESE) 1,826 6.0 -12.2°
Enters shadow 22:02:14 - 101° (ESE) 2,427 6.6 -12.2°
